K3JAR-3 Weather Reports


Display with metric or nautical units.
time (UTC)temp
F
wind
direction
speed
MPH
gust
MPH
rain 1hr
in
rain 24hr
in
rain mn
in
humidity
%
barometer
mb
20260901135015 85 179 3.0 4.0 0.00 0.00 0.00 69 1019.4
20260901134019 85 159 2.0 4.0 0.00 0.00 0.00 70 1019.4
20260901133022 84 159 3.0 5.0 0.00 0.00 0.00 70 1019.4
20260901132025 82 151 2.0 4.0 0.00 0.00 0.00 72 1019.4
20260901131029 82 153 2.0 3.0 0.00 0.00 0.00 72 1019.3
20260901130053 81 161 2.0 3.0 0.00 0.00 0.00 73 1019.1
20260901125017 80 166 0.0 1.0 0.00 0.00 0.00 75 1018.9
20260901124021 79 0.0 0.0 0.00 0.00 0.00 77 1018.9
20260901123024 78 160 1.0 2.0 0.00 0.00 0.00 79 1018.8
20260901122052 77 0.0 1.0 0.00 0.00 0.00 79 1018.6
20260901121022 77 0.0 0.0 0.00 0.00 0.00 79 1018.5
20260901120021 77 0.0 0.0 0.00 0.00 0.00 78 1018.5
20260901115023 77 0.0 0.0 0.00 0.00 0.00 78 1018.4
20260901114027 77 0.0 0.0 0.00 0.00 0.00 77 1018.5
20260901113031 77 0.0 0.0 0.00 0.00 0.00 77 1018.4
20260901112015 78 119 0.0 2.0 0.00 0.00 0.00 75 1018.3
20260901111019 78 138 1.0 2.0 0.00 0.00 0.00 74 1018.1
20260901110021 79 140 1.0 2.0 0.00 0.00 0.00 73 1017.9
20260901105025 79 162 2.0 3.0 0.00 0.00 0.00 72 1018.0
20260901104015 79 180 2.0 3.0 0.00 0.00 0.00 72 1017.9
20260901103039 79 195 3.0 4.0 0.00 0.00 0.00 72 1017.9
20260901102022 80 172 2.0 3.0 0.00 0.00 0.00 71 1018.0
20260901101025 80 178 3.0 3.0 0.00 0.00 0.00 70 1018.0
20260901100048 80 176 2.0 3.0 0.00 0.00 0.00 70 1018.0
20260901095025 81 205 3.0 4.0 0.00 0.00 0.00 69 1018.1
20260901094022 81 157 4.0 5.0 0.00 0.00 0.00 68 1018.1
20260901093020 81 180 3.0 5.0 0.00 0.00 0.00 68 1018.1
20260901092017 82 178 4.0 6.0 0.00 0.00 0.00 67 1018.1
20260901091026 82 171 4.0 6.0 0.00 0.00 0.00 67 1018.0
20260901090030 82 176 3.0 5.0 0.00 0.00 0.00 67 1017.9
20260901085015 82 189 3.0 4.0 0.00 0.00 0.00 66 1018.0
20260901084018 82 195 3.0 4.0 0.00 0.00 0.00 65 1018.0
20260901083021 83 168 3.0 4.0 0.00 0.00 0.00 64 1018.1
20260901082024 83 175 3.0 5.0 0.00 0.00 0.00 64 1018.1
20260901081028 84 155 4.0 6.0 0.00 0.00 0.00 63 1018.0
20260901080057 84 166 5.0 7.0 0.00 0.00 0.00 62 1017.9
20260901075037 84 173 6.0 8.0 0.00 0.00 0.00 62 1018.0
20260901074040 84 178 5.0 6.0 0.00 0.00 0.00 61 1017.9
20260901073028 83 157 4.0 5.0 0.00 0.00 0.00 59 1017.8
20260901072026 84 157 3.0 4.0 0.00 0.00 0.00 58 1017.8
20260901071029 84 165 3.0 4.0 0.00 0.00 0.00 58 1017.7
20260901070015 84 152 3.0 4.0 0.00 0.00 0.00 57 1017.7
20260901065018 85 154 3.0 4.0 0.00 0.00 0.00 56 1017.6
20260901064022 85 155 4.0 5.0 0.00 0.00 0.00 56 1017.3
20260901063024 85 159 4.0 6.0 0.00 0.00 0.00 56 1017.3
20260901062027 85 158 4.0 5.0 0.00 0.00 0.00 56 1017.3
20260901061025 84 163 3.0 4.0 0.00 0.00 0.00 56 1017.2
20260901060016 83 157 2.0 3.0 0.00 0.00 0.00 56 1017.1
20260901055020 83 112 0.0 1.0 0.00 0.00 0.00 55 1017.0
20260901054017 83 142 1.0 2.0 0.00 0.00 0.00 54 1016.8
20260901053046 83 173 2.0 3.0 0.00 0.00 0.00 54 1016.8
20260901052030 83 157 2.0 4.0 0.00 0.00 0.00 54 1016.7
20260901051015 83 112 0.0 1.0 0.00 0.00 0.00 53 1016.6
20260901050058 83 152 0.0 2.0 0.00 0.00 0.00 53 1016.6
20260901045021 83 126 0.0 1.0 0.00 0.00 0.00 53 1016.6
20260901044045 83 135 0.0 2.0 0.00 0.00 0.00 53 1016.6
20260901043028 83 0.0 0.0 0.00 0.00 0.00 52 1016.6
20260901042051 83 0.0 0.0 0.00 0.00 0.00 51 1016.6
20260901041017 84 135 0.0 3.0 0.00 0.00 0.00 50 1016.6
20260901040020 84 0.0 0.0 0.00 0.00 0.00 49 1016.6
20260901035109 84 0.0 0.0 0.00 0.00 0.00 48 1016.6
20260901034027 84 0.0 0.0 0.00 0.00 0.00 48 1016.6
20260901033034 85 112 0.0 2.0 0.00 0.00 0.00 47 1016.6
20260901032015 85 122 1.0 2.0 0.00 0.00 0.00 46 1016.6
20260901031018 86 145 1.0 2.0 0.00 0.00 0.00 45 1016.6
20260901030022 86 112 1.0 2.0 0.00 0.00 0.00 45 1016.3
20260901025025 86 0.0 0.0 0.00 0.00 0.00 44 1016.3
20260901024129 87 123 0.0 1.0 0.00 0.00 0.00 43 1016.1
20260901023046 87 146 1.0 2.0 0.00 0.00 0.00 43 1016.0
20260901022017 88 112 0.0 1.0 0.00 0.00 0.00 42 1015.9
20260901021020 88 133 1.0 2.0 0.00 0.00 0.00 42 1015.8
20260901020017 89 0.0 0.0 0.00 0.00 0.00 42 1015.6
20260901015026 89 137 1.0 3.0 0.00 0.00 0.00 42 1015.6
20260901014030 90 121 1.0 3.0 0.00 0.00 0.00 41 1015.6
20260901013033 91 128 1.0 2.0 0.00 0.00 0.00 40 1015.5
20260901012018 92 135 0.0 3.0 0.00 0.00 0.00 40 1015.4
20260901011021 93 129 2.0 3.0 0.00 0.00 0.00 39 1015.4
20260901010050 94 120 2.0 4.0 0.00 0.00 0.00 37 1015.4
20260901005028 95 145 2.0 4.0 0.00 0.00 0.00 37 1015.3
20260901004031 97 114 3.0 6.0 0.00 0.00 0.00 36 1015.3
20260901003017 96 141 2.0 4.0 0.00 0.00 0.00 36 1015.3
20260901002020 97 154 4.0 6.0 0.00 0.00 0.00 35 1015.2
20260901001023 97 150 3.0 4.0 0.00 0.00 0.00 35 1015.2
20260901000026 98 148 5.0 6.0 0.00 0.00 0.00 35 1015.2
20260831235030 98 165 5.0 6.0 0.00 0.00 0.00 35 1015.3
20260831234015 99 150 3.0 6.0 0.00 0.00 0.00 34 1015.3
20260831233018 99 110 4.0 6.0 0.00 0.00 0.00 34 1015.3
20260831232022 99 148 5.0 7.0 0.00 0.00 0.00 34 1015.3
20260831231045 100 105 7.0 8.0 0.00 0.00 0.00 33 1015.3
20260831230048 98 150 3.0 5.0 0.00 0.00 0.00 35 1015.4
20260831225025 99 125 5.0 10.0 0.00 0.00 0.00 34 1015.4
20260831224017 100 132 4.0 6.0 0.00 0.00 0.00 33 1015.4
20260831223020 101 163 6.0 8.0 0.00 0.00 0.00 33 1015.5
20260831222017 101 117 3.0 6.0 0.00 0.00 0.00 33 1015.6
20260831221046 102 83 6.0 10.0 0.00 0.00 0.00 31 1015.6
20260831220032 102 143 5.0 8.0 0.00 0.00 0.00 32 1015.7
20260831215015 102 157 3.0 6.0 0.00 0.00 0.00 31 1015.9
20260831214019 101 140 5.0 8.0 0.00 0.00 0.00 32 1015.9
20260831213022 100 172 4.0 8.0 0.00 0.00 0.00 33 1016.0
20260831212024 102 100 5.0 8.0 0.00 0.00 0.00 32 1016.1
20260831211028 101 141 6.0 9.0 0.00 0.00 0.00 34 1016.3
20260831210051 99 163 5.0 7.0 0.00 0.00 0.00 34 1016.5
20260831205021 100 131 4.0 6.0 0.00 0.00 0.00 34 1016.6
20260831204100 99 147 5.0 9.0 0.00 0.00 0.00 34 1016.7
20260831203023 100 160 6.0 10.0 0.00 0.00 0.00 33 1016.8
20260831202026 102 137 7.0 9.0 0.00 0.00 0.00 32 1016.9
20260831201050 102 168 5.0 7.0 0.00 0.00 0.00 33 1017.0
20260831200015 102 132 5.0 9.0 0.00 0.00 0.00 34 1017.1
20260831195019 101 144 5.0 10.0 0.00 0.00 0.00 34 1017.3
20260831194021 102 144 6.0 10.0 0.00 0.00 0.00 34 1017.5
20260831193024 101 174 7.0 11.0 0.00 0.00 0.00 35 1017.5
20260831192028 99 172 6.0 12.0 0.00 0.00 0.00 36 1017.6
20260831191025 100 159 6.0 12.0 0.00 0.00 0.00 35 1017.7
20260831190101 100 172 7.0 11.0 0.00 0.00 0.00 36 1017.8
20260831185019 99 155 7.0 8.0 0.00 0.00 0.00 38 1017.8
20260831184057 101 162 6.0 8.0 0.00 0.00 0.00 37 1018.0
20260831183031 99 173 9.0 12.0 0.00 0.00 0.00 38 1018.2
20260831182029 99 117 6.0 10.0 0.00 0.00 0.00 39 1018.3
20260831181033 99 134 4.0 7.0 0.00 0.00 0.00 39 1018.5
20260831180017 99 176 5.0 8.0 0.00 0.00 0.00 40 1018.7
20260831175020 98 171 6.0 8.0 0.00 0.00 0.00 41 1019.0
20260831174024 98 167 5.0 9.0 0.00 0.00 0.00 41 1019.1
20260831173027 98 174 5.0 9.0 0.00 0.00 0.00 40 1019.1
20260831172029 96 181 5.0 8.0 0.00 0.00 0.00 41 1019.2
20260831171015 96 192 7.0 10.0 0.00 0.00 0.00 41 1019.3
20260831170018 96 163 6.0 9.0 0.00 0.00 0.00 42 1019.4
20260831165021 96 173 6.0 8.0 0.00 0.00 0.00 42 1019.4
20260831164025 95 201 5.0 8.0 0.00 0.00 0.00 43 1019.4
20260831163033 95 171 6.0 10.0 0.00 0.00 0.00 43 1019.4
20260831162033 94 168 6.0 7.0 0.00 0.00 0.00 44 1019.4
20260831161016 93 156 7.0 8.0 0.00 0.00 0.00 45 1019.5
20260831160020 93 187 5.0 7.0 0.00 0.00 0.00 46 1019.5
20260831155023 92 174 5.0 8.0 0.00 0.00 0.00 48 1019.4
20260831154046 92 191 7.0 9.0 0.00 0.00 0.00 48 1019.4
20260831153104 91 209 7.0 9.0 0.00 0.00 0.00 50 1019.3
20260831152021 91 185 5.0 8.0 0.00 0.00 0.00 52 1019.3
20260831151017 90 191 5.0 8.0 0.00 0.00 0.00 54 1019.2
20260831150015 89 190 6.0 9.0 0.00 0.00 0.00 57 1019.2
20260831145024 88 205 8.0 10.0 0.00 0.00 0.00 60 1019.1
20260831144049 87 202 7.0 12.0 0.00 0.00 0.00 62 1019.1
20260831143034 86 221 10.0 13.0 0.00 0.00 0.00 64 1019.0
20260831142021 85 191 7.0 9.0 0.00 0.00 0.00 66 1019.0
20260831141020 84 187 5.0 7.0 0.00 0.00 0.00 69 1019.0
20260831140023 83 201 6.0 9.0 0.00 0.00 0.00 70 1019.0